User: anonymous   Login
Location: Unspecified
(0.0000°N, 0.0000°E)
Time: 10:03:01
(UTC+01:00)
Language:

Cosmos 1758 - Orbit

View from above orbital plane
View from above orbital plane
View from above satellite
View from above satellite

Ground track
Ground track

The orbit data is extracted from the following two-line orbital elements,

1 16791U 86046A   14302.94472198  .00003525  00000-0  26874-3 0  1719
2 16791 082.4720 247.2989 0019636 114.2167 246.1112 15.01603052541243
Epoch (UTC): 29 October 2014 22:40:23
Eccentricity: 0.0019636
inclination: 82.4720°
perigee height: 548 km
apogee height: 575 km
right ascension of ascending node: 247.2989°
argument of perigee: 114.2167°
revolutions per day: 15.01603052
mean anomaly at epoch: 246.1112°
orbit number at epoch: 54124

The dashed part of the orbit path shows where the satellite is in the earth's shadow,  

DLR